This demonstration page uses our WeatherBlox Daily Observations layout. Learn more.

Left ArrowRight Arrow

38.80484, -77.04692

Hourly Observations for April 7, 2015

Temp ( °F °C ) Dew Point ( °F °C ) Humidity (%) Winds ( mph kmh ) Pressure ( in mb ) Visibility ( mi km ) Precip ( " mm )
12:52 am 00:52 Mostly Cloudy 64 17.8 51 10.6 63 63 S 12 19 30.14 1021 10 16 0.00 0.00
1:52 am 01:52 Cloudy 65 18.3 51 10.6 61 61 S 9 15 30.14 1021 10 16 0.00 0.00
2:52 am 02:52 Cloudy with Light Rain 62 16.7 53 11.7 73 73 S 7 11 30.16 1021 10 16 0.00 0.03
3:52 am 03:52 Cloudy with Light Rain 64 17.8 53 11.7 68 68 SW 6 9 30.15 1021 10 16 0.01 0.25
4:52 am 04:52 Cloudy 63 17.2 54 12.2 73 73 WSW 3 6 30.15 1021 10 16 0.01 0.25
5:52 am 05:52 Cloudy with Light Rain 62 16.7 54 12.2 75 75 Calm 30.15 1021 10 16 0.00 0.03
6:52 am 06:52 Mostly Cloudy 59 15 53 11.7 81 81 S 6 9 30.16 1021 10 16 0.00 0.03
7:52 am 07:52 Mostly Cloudy 63 17.2 54 12.2 73 73 S 8 13 30.17 1022 10 16 0.00 0.00
8:52 am 08:52 Mostly Cloudy 64 17.8 56 13.3 75 75 S 10 17 30.17 1022 10 16 0.00 0.00
9:52 am 09:52 Cloudy 64 17.8 56 13.3 75 75 S 8 13 30.17 1022 10 16 0.00 0.03
10:52 am 10:52 Cloudy 66 18.9 56 13.3 70 70 S 8 13 30.18 1022 10 16 0.00 0.00
11:52 am 11:52 Cloudy 66 18.9 57 13.9 73 73 S 9 15 30.16 1021 10 16 0.00 0.00
12:52 pm 12:52 Cloudy 69 20.6 57 13.9 66 66 S 9 15 30.15 1021 10 16 0.00 0.00
1:52 pm 13:52 Cloudy 71 21.7 59 15 66 66 S 13 20 30.14 1021 10 16 0.00 0.00
2:17 pm 14:17 Cloudy 70 21 57 14 64 64 S 8 13 30.12 1020 10 16 0.00 0.00
2:35 pm 14:35 Cloudy 70 21 57 14 64 64 S 9 15 30.12 1020 10 16 0.00 0.00
2:52 pm 14:52 Cloudy 70 21.1 58 14.4 66 66 S 9 15 30.11 1020 10 16 0.00 0.00
3:52 pm 15:52 Cloudy 70 21.1 58 14.4 66 66 S 15 24 30.10 1019 10 16 0.00 0.00
4:52 pm 16:52 Cloudy 70 21.1 58 14.4 66 66 S 10 17 30.10 1019 10 16 0.00 0.00
5:52 pm 17:52 Cloudy 70 21.1 58 14.4 66 66 S 12 19 30.10 1019 10 16 0.00 0.00
6:52 pm 18:52 Cloudy 67 19.4 58 14.4 73 73 S 8 13 30.09 1019 10 16 0.00 0.00
7:52 pm 19:52 Cloudy 68 20 59 15 73 73 S 8 13 30.09 1019 10 16 0.00 0.00
8:52 pm 20:52 Cloudy 66 18.9 58 14.4 75 75 S 8 13 30.12 1020 10 16 0.00 0.00
9:52 pm 21:52 Cloudy 65 18.3 58 14.4 78 78 SSE 5 7 30.13 1020 10 16 0.00 0.00
10:52 pm 22:52 Cloudy 65 18.3 60 15.6 84 84 S 3 6 30.13 1020 10 16 0.00 0.00
11:40 pm 23:40 Cloudy 66 19 61 16 83 83 Calm 30.15 1021 10 16 0.00 0.00
11:52 pm 23:52 Cloudy 65 18.3 60 15.6 84 84 NNE 6 9 30.14 1021 10 16 0.00 0.00

Powered by AerisWeather